TimeMDT,TemperatureF,Dew PointF,Humidity,Sea Level PressureIn,VisibilityMPH,Wind Direction,Wind SpeedMPH,Gust SpeedMPH,PrecipitationIn,Events,Conditions,WindDirDegrees,DateUTC
12:53 AM,32.0,19.0,59,29.80,10.0,WNW,12.7,-,N/A,,Clear,300,2014-03-28 06:53:00
1:53 AM,30.9,19.9,64,29.80,10.0,NW,8.1,-,N/A,,Clear,320,2014-03-28 07:53:00
2:53 AM,27.0,19.9,75,29.83,10.0,WNW,9.2,-,N/A,,Clear,290,2014-03-28 08:53:00
3:53 AM,27.0,19.0,72,29.88,10.0,WSW,8.1,-,N/A,,Clear,250,2014-03-28 09:53:00
4:53 AM,26.1,18.0,71,29.90,10.0,WSW,6.9,-,N/A,,Clear,250,2014-03-28 10:53:00
5:53 AM,27.0,17.1,66,29.90,10.0,WSW,11.5,-,N/A,,Clear,250,2014-03-28 11:53:00
6:53 AM,26.1,17.1,69,29.93,10.0,West,10.4,-,N/A,,Clear,260,2014-03-28 12:53:00
7:53 AM,30.0,17.1,59,29.96,10.0,West,11.5,-,N/A,,Clear,270,2014-03-28 13:53:00
8:53 AM,37.9,16.0,41,29.96,10.0,WNW,18.4,-,N/A,,Clear,300,2014-03-28 14:53:00
9:53 AM,39.9,16.0,38,29.98,10.0,NNW,13.8,-,N/A,,Clear,330,2014-03-28 15:53:00
10:53 AM,43.0,12.0,28,30.00,10.0,West,11.5,-,N/A,,Clear,270,2014-03-28 16:53:00
11:53 AM,46.0,12.0,25,30.00,10.0,WNW,16.1,29.9,N/A,,Clear,290,2014-03-28 17:53:00
12:00 PM,46.0,10.0,23,30.00,10.0,WNW,18.4,27.6,N/A,,Clear,290,2014-03-28 18:00:00
12:53 PM,48.9,7.0,18,29.99,10.0,NNW,18.4,29.9,N/A,,Clear,330,2014-03-28 18:53:00
1:53 PM,48.9,9.0,20,29.99,10.0,NNW,21.9,29.9,N/A,,Partly Cloudy,330,2014-03-28 19:53:00
2:53 PM,50.0,3.9,15,29.99,10.0,WSW,13.8,21.9,N/A,,Overcast,240,2014-03-28 20:53:00
3:00 PM,50.0,3.9,15,29.99,10.0,West,16.1,23.0,N/A,,Mostly Cloudy,270,2014-03-28 21:00:00
3:53 PM,50.0,1.9,14,30.00,10.0,West,20.7,27.6,N/A,,Clear,270,2014-03-28 21:53:00
4:53 PM,50.0,7.0,18,30.01,10.0,West,13.8,-,N/A,,Partly Cloudy,260,2014-03-28 22:53:00
5:44 PM,48.9,6.1,18,30.01,10.0,West,11.5,21.9,N/A,,Clear,260,2014-03-28 23:44:00
5:53 PM,48.0,7.0,19,30.02,10.0,SW,13.8,-,N/A,,Clear,230,2014-03-28 23:53:00
6:53 PM,46.9,7.0,20,30.04,10.0,WSW,11.5,-,N/A,,Clear,250,2014-03-29 00:53:00
7:53 PM,39.0,10.0,30,30.07,10.0,WNW,11.5,-,N/A,,Clear,300,2014-03-29 01:53:00
8:53 PM,37.9,12.9,36,30.07,10.0,West,12.7,-,N/A,,Clear,280,2014-03-29 02:53:00
9:53 PM,37.0,12.0,36,30.07,10.0,South,6.9,-,N/A,,Clear,190,2014-03-29 03:53:00
10:53 PM,35.1,12.9,40,30.06,10.0,SW,9.2,-,N/A,,Clear,230,2014-03-29 04:53:00
11:53 PM,32.0,14.0,48,30.07,10.0,WSW,5.8,-,N/A,,Clear,250,2014-03-29 05:53:00